Tracking 30995 objects as of 5-Jul-2025
HD Live streaming from Space Station
objects crossing your sky now

QUAKESAT

Track QUAKESAT now!
10-day predictions
QUAKESAT is classified as:


NORAD ID: 27845
Int'l Code: 2003-031F
Perigee: 810.2 km
Apogee: 824.2 km
Inclination: 98.7 °
Period: 101.1 minutes
Semi major axis: 7188 km
RCS: 0.2303 m2 (medium)
Launch date: June 30, 2003
Source: United States (US)
Launch site: PLESETSK MISSILE AND SPACE COMPLEX (PKMTR)

Uplink (MHz):
Downlink (MHz): 436.682
Beacon (MHz):
Mode: 9600bps FSK
Call sign: KD7OVB
Status: Inactive


Nanosatellite; research on early warning for earthquakes.
Your satellite tracking list
Your tracking list is empty




NASA's NSSDC Master Catalog

Two Line Element Set (TLE):
1 27845U 03031F   25186.51704382  .00000343  00000-0  16647-3 0  9992
2 27845  98.6649 194.7939 0009694 126.3079 233.8996 14.24534178142240
Source of the keplerian elements: AFSPC